Regional Weather Roundup
Issued by NWS State College, PA

Home | Current Version | Previous Version | Graphics & Text | Print | Product List | Glossary On
Versions: 1 2 3 4 5 6 7 8 9 10 11 12 13 14 15 16 17 18 19 20 21 22 23 24 25 26 27 28 29 30 31 32 33 34 35 36 37 38 39 40 41 42 43 44 45 46 47 48 49 50
000
ASUS41 KCTP 142010
RWRCTP

REGIONAL WEATHER ROUNDUP
NATIONAL WEATHER SERVICE STATE COLLEGE PA
400 PM EDT SUN SEP 14 2014

Note: "fair" indicates few or no clouds below 12,000 feet with no
significant weather and/or obstructions to visibility.

* = STATION THAT DOES NOT REPORT PRECIPITATION /E.G. RAIN...SNOW...ETC/
    THUNDER OR FOG.

PAZ002>004-007>009-013>016-020>023-029>032-142100-
WESTERN PENNSYLVANIA

CITY           SKY/WX    TMP DP  RH WIND       PRES   REMARKS
ERIE           SUNNY     61  40  45 N8        30.26F
MEADVILLE      CLOUDY    61  42  49 VRB3      30.24F
FRANKLIN*      PTSUNNY   63  43  48 S8        30.25F
NEW CASTLE     FAIR      62  43  49 CALM      30.26F
BEAVER COUNTY  MOSUNNY   63  43  48 N3        30.25F
BUTLER*        SUNNY     61  41  48 E5        30.26F
PITTSBURGH INT MOSUNNY   64  42  44 VRB6      30.24F
PITTSBURGH     MOSUNNY   63  41  44 E3        30.23F
INDIANA*       SUNNY     63  41  45 VRB5      30.28S
LATROBE        SUNNY     64  46  52 CALM      30.24F
WASHINGTON CO* SUNNY     63  45  51 CALM      30.25F
$$

PAZ004>006-010>012-017>019-024>028-033>037-041-042-045-046-049>053-142100-
CENTRAL PENNSYLVANIA

CITY           SKY/WX    TMP DP  RH WIND       PRES   REMARKS
BRADFORD       CLOUDY    59  42  53 NW7       30.24F
DUBOIS         PTSUNNY   57  43  59 NW6       30.24F
CLEARFIELD     PTSUNNY   61  46  57 E3        30.25F
JOHNSTOWN      MOSUNNY   59  40  49 W7        30.23F
ALTOONA        PTSUNNY   60  45  57 S3        30.25F
STATE COLLEGE  MOSUNNY   59  45  58 CALM      30.25F
WILLIAMSPORT   PTSUNNY   64  42  44 CALM      30.21F
SELINSGROVE    PTSUNNY   65  45  48 CALM      30.24F
FT INDIANTOWN  PTSUNNY   64  46  52 VRB1      30.23F
CAPITAL CITY   PTSUNNY   64  43  46 VRB6      30.24F
HARRISBURG     PTSUNNY   65  45  48 W8        30.23F
YORK           PTSUNNY   67  46  47 N6        30.23F
$$

PAZ038>040-043-044-047-048-054-055-060>062-067>071-142100-
EASTERN PENNSYLVANIA

CITY           SKY/WX    TMP DP  RH WIND       PRES   REMARKS
SCRANTON       MOSUNNY   65  42  43 NW6       30.22F
MOUNT POCONO   MOSUNNY   62  40  44 W5        30.22F
ALLENTOWN      PTSUNNY   67  43  41 NW3       30.20F
QUAKERTOWN*    MOCLDY    66  46  48 CALM      30.22F
READING        MOSUNNY   66  45  46 CALM      30.21F
LANCASTER      MOSUNNY   64  44  48 NW5       30.23F
COATESVILLE    CLEAR     63  48  59 NW3       30.24F
POTTSTOWN      MOSUNNY   66  49  54 NW6       30.23F
BLUE BELL      MOSUNNY   68  50  52 CALM      30.21F
DOYLESTOWN     MOSUNNY   67  46  47 MISG      30.20F
WILLOW GROVE   NOT AVBL
NORTH PHILA    MOSUNNY   70  45  40 VRB5      30.22F
PHILADELPHIA   PTSUNNY   68  47  46 VRB6      30.22F
$$


USA.gov is the U.S. government's official web portal to all federal, state and local government web resources and services.